#timestamp,LO_Frequency,Hit,StdDev 
1619841615.1,286047003.2,N
1619841635.9,286047006.0,Y
1619841655.7,286047001.4,P
1619841675.6,286047003.5,P
1619841695.4,286047001.8,N
1619841715.2,286046999.9,N
1619841735.1,286046998.1,N
1619841736.0,286046998.1,N
1619841755.8,286046999.3,N
1619841775.7,286046998.6,N
1619841795.5,286046998.9,N
1619841815.3,286046999.4,N
1619841835.2,286046997.0,N
1619841855.0,286046996.7,N
1619841855.9,286046996.7,N
1619841875.7,286046998.8,N
1619841895.6,286046997.2,N
1619841915.4,286046999.2,N
1619841935.3,286047000.7,N
1619841955.1,286047000.3,N
1619841956.0,286047000.3,N
1619841975.8,286047001.8,N
1619841995.7,286047002.1,N
1619842015.5,286047001.3,N
1619842035.4,286047001.5,N
1619842055.2,286047001.7,N
1619842075.0,286047001.8,N
1619842075.9,286047001.8,N
1619842095.8,286047004.4,N
1619842115.6,286047004.2,N
1619842135.4,286047001.8,N
1619842155.3,286047002.1,N
1619842175.1,286047000.1,N
1619842195.9,286046998.6,N
1619842215.7,286047000.2,N
1619842235.5,286047001.0,N
1619842255.4,286046996.6,N
1619842275.2,286046997.3,N
1619842295.0,286046999.6,N
1619842295.9,286046999.6,N
1619842315.8,286046999.2,N
1619842335.6,286046998.3,N
1619842355.5,286046996.7,N
1619842375.3,286046996.6,N
1619842395.1,286046996.8,N
1619842415.9,286046997.7,N
1619842435.7,286046997.2,N
1619842455.5,286046997.8,N
1619842475.4,286046997.2,N
1619842495.2,286046997.1,N
1619842515.1,286046997.8,N
1619842516.0,286046997.8,N
1619842535.8,286046994.9,N
1619842555.6,286046996.6,N
1619842575.5,286046998.7,N
1619842595.3,286047000.9,N
1619842615.2,286047002.3,N
1619842635.9,286046999.7,N
1619842655.7,286047002.4,N
1619842675.6,286047001.6,N
1619842695.4,286047002.6,N
1619842715.2,286047002.7,N
1619842735.1,286047002.1,N
1619842736.0,286047002.1,N
1619842755.8,286047001.8,N
1619842775.7,286047002.3,N
1619842795.5,286047003.7,N
1619842815.3,286047007.3,Y
1619842835.2,286047006.8,P
1619842855.0,286047008.6,N
1619842855.9,286047008.6,N
1619842875.8,286047009.9,N
1619842895.6,286047009.4,N
1619842915.4,286047009.7,N
1619842935.3,286047009.7,N
1619842955.1,286047012.2,Y
1619842975.8,286047001.9,P
1619842995.7,286047000.5,N
1619843015.5,286047000.8,N
1619843035.4,286046998.1,N
1619843055.2,286047001.1,N
1619843075.0,286046998.1,N
1619843075.9,286046998.1,N
1619843095.8,286046999.2,N
1619843115.6,286046996.8,N
1619843135.5,286046995.4,N
1619843155.3,286046995.4,N
1619843175.1,286046995.3,N
1619843195.9,286046997.8,N
1619843215.7,286046997.6,N
1619843235.5,286046996.2,N
1619843255.4,286046997.3,N
1619843275.2,286046997.8,N
1619843295.1,286046997.3,N
1619843296.0,286046997.3,N
1619843315.8,286046996.8,N
1619843335.6,286046997.1,N
1619843355.5,286046996.7,N
1619843375.3,286046996.5,N
1619843395.2,286046998.3,N
1619843415.9,286046998.1,N
1619843435.7,286046999.0,N
1619843455.6,286046998.5,N
1619843475.4,286047000.8,N
1619843495.2,286047000.8,N
1619843515.1,286047000.9,N
1619843516.0,286047000.9,N
1619843535.8,286046999.0,N
1619843555.7,286046996.5,N
1619843575.5,286046998.9,N
1619843595.3,286047001.0,N
1619843615.2,286047000.2,N
1619843635.0,286047002.4,N
1619843635.9,286047002.4,N
1619843655.8,286047000.6,N
1619843675.6,286047002.4,N
1619843695.4,286047002.8,N
1619843715.3,286047000.5,N
1619843735.1,286046999.4,N
1619843755.9,286046999.5,N
1619843775.7,286046998.5,N
1619843795.5,286047000.7,N
1619843815.4,286047000.5,N
1619843835.2,286046998.2,N
1619843855.0,286047002.7,N
1619843855.9,286047002.7,N
1619843875.8,286047000.5,N
1619843895.6,286047001.2,N
1619843945.5,286046998.7,E
1619843955.4,286046998.2,N
1619843975.2,286047000.3,P
1619843995.1,286047000.0,N
1619843996.0,286047000.0,N
1619844015.8,286047000.6,N
1619844035.6,286047002.7,Y
1619844055.5,286046999.8,P
1619844075.3,286047002.2,P
1619844095.2,286047002.7,N
1619844115.9,286047001.4,N
1619844135.7,286047004.4,Y
1619844155.6,286047002.8,P
1619844175.4,286047002.7,P
1619844195.2,286046999.8,N
1619844215.1,286046999.8,N
1619844216.0,286046999.8,N
1619844235.8,286047002.4,N
1619844255.7,286047001.6,N
1619844275.5,286047004.0,Y
1619844295.3,286047000.0,P
1619844315.2,286046999.9,N
1619844335.0,286046998.1,P
1619844335.9,286046998.1,N
1619844355.8,286046998.1,N
1619844375.6,286046997.2,N
1619844395.4,286046999.2,N
1619844415.3,286047000.7,N
1619844435.1,286046996.6,N
1619844455.8,286046997.7,N
1619844475.7,286046999.0,N
1619844495.5,286047000.7,N
1619844515.4,286046996.5,N
1619844535.2,286046997.0,N
1619844555.0,286046998.9,N
1619844555.9,286046998.9,N
1619844575.8,286046996.5,N
1619844595.6,286046999.2,N
1619844615.4,286046996.7,N
1619844635.3,286046997.1,N
1619844655.1,286046997.0,N
1619844675.9,286046996.5,N
1619844695.7,286046996.5,N
1619844715.5,286046998.7,N
1619844735.4,286046998.1,N
1619844755.2,286046996.6,N
1619844775.0,286046998.2,N
1619844776.0,286046998.2,N
1619844795.8,286046996.7,N
1619844815.6,286046997.1,N
1619844835.5,286046999.1,N
1619844855.3,286047000.9,N
1619844875.1,286046998.7,N
1619844895.9,286046998.6,N
1619844915.7,286047000.5,N
1619844935.6,286047000.8,N
1619844955.4,286047000.1,N
1619844975.2,286047002.4,N
1619844995.1,286046999.9,N
1619844996.0,286046999.9,N
1619845015.8,286047002.2,N
1619845035.6,286047001.3,N
1619845055.5,286047001.9,N
1619845075.3,286046999.9,N
1619845095.2,286047000.7,N
1619845115.9,286047001.2,N
1619845135.7,286046999.4,N
1619845155.6,286046996.6,N
1619845175.4,286046995.0,N
1619845195.2,286046995.7,N
